Location: Huesca
(42.1318°N, 0.4078°W)
Time: 20:06:28
(UTC+02:00)

DIWATA 2B (PO-101) - Pass Details

Date: 28 April 2024
Orbit: 575 x 589 km, 98.1° (Epoch: 20 May)

Event Time Altitude Azimuth Distance (km) Brightness Sun altitude
Exits shadow 05:40:36 - 177° (S) 2,350 ? -14.1°
Reaches altitude 10° 05:41:40 10° 180° (S) 1,911 ? -13.9°
Maximum altitude 05:45:45 57° 259° (W) 698 ? -13.3°
Drops below altitude 10° 05:49:52 10° 339° (NNW) 1,922 ? -12.6°
Sets 05:52:04 0° 343° (NNW) 2,826 ? -12.3°
